Location: Crayja
(6.2254°N, 10.6273°W)
Time: 09:24:17
(UTC+00:00)

STARLINK-21 - Pass Details

Date: 17 February 2020
Orbit: 529 x 530 km, 53.0° (Epoch: 29 March)

Event Time Altitude Azimuth Distance (km) Brightness Sun altitude
Exits shadow 05:44:21 39° 238° (WSW) 798 4.0 -18.9°
Maximum altitude 05:44:24 39° 236° (WSW) 798 4.1 -18.9°
Drops below altitude 10° 05:48:10 10° 167° (SSE) 1,771 6.5 -18.0°
Sets 05:50:28 0° 159° (SSE) 2,661 7.6 -17.4°
